• In Czech Republic
  • List of Countries
  • For 7 days
  • Water Temperature
  • Satellite Maps
  • Weather Map
  • Weather Widgets
  • user-avatar
    Login

    Hourly Weather Saint-Nicolas

    Today, 16 November, Friday

    Time Temperature Precipitation Wind Pressure Humidity
    00:00 +4°C° 0 mm 1 mps 755 mmHg 75%
    01:00 +4°C° 0 mm 1 mps 755 mmHg 75%
    02:00 +4°C° 0 mm 1 mps 755 mmHg 75%
    03:00 +3°C° 0 mm 2 mps 755 mmHg 75%
    04:00 +4°C° 0 mm 1 mps 755 mmHg 75%
    05:00 +4°C° 0 mm 1 mps 755 mmHg 75%
    06:00 +4°C° 0 mm 1 mps 755 mmHg 75%
    07:00 +5°C° 0 mm 1 mps 756 mmHg 71%
    08:00 +6°C° 0 mm 1 mps 756 mmHg 68%
    09:00 +7°C° 0 mm 1 mps 756 mmHg 65%
    10:00 +8°C° 0 mm 2 mps 756 mmHg 62%
    11:00 +9°C° 0 mm 2 mps 756 mmHg 58%
    12:00 +12°C° 0 mm 2 mps 756 mmHg 55%
    13:00 +10°C° 0 mm 2 mps 756 mmHg 58%
    14:00 +10°C° 0 mm 2 mps 756 mmHg 61%
    15:00 +9°C° 0 mm 2 mps 756 mmHg 64%
    16:00 +8°C° 0 mm 3 mps 756 mmHg 65%
    17:00 +7°C° 0 mm 3 mps 756 mmHg 67%
    18:00 +5°C° 0 mm 3 mps 756 mmHg 68%
    19:00 +4°C° 0 mm 3 mps 756 mmHg 68%
    20:00 +4°C° 0 mm 3 mps 756 mmHg 67%
    21:00 +4°C° 0 mm 3 mps 756 mmHg 67%
    22:00 +4°C° 0 mm 3 mps 756 mmHg 69%
    23:00 +3°C° 0 mm 3 mps 756 mmHg 71%

    Tomorrow, 17 November, Saturday

    Time Temperature Precipitation Wind Pressure Humidity
    00:00 +3°C° 0 mm 3 mps 756 mmHg 72%
    01:00 +3°C° 0 mm 3 mps 756 mmHg 74%
    02:00 +2°C° 0 mm 3 mps 756 mmHg 76%
    03:00 +2°C° 0 mm 3 mps 756 mmHg 78%
    04:00 +2°C° 0 mm 3 mps 756 mmHg 78%
    05:00 +2°C° 0 mm 3 mps 756 mmHg 79%
    06:00 +2°C° 0 mm 3 mps 756 mmHg 79%
    07:00 +3°C° 0 mm 4 mps 756 mmHg 74%
    08:00 +4°C° 0 mm 4 mps 756 mmHg 69%
    09:00 +5°C° 0 mm 5 mps 757 mmHg 64%
    10:00 +6°C° 0 mm 5 mps 756 mmHg 60%
    11:00 +7°C° 0 mm 6 mps 756 mmHg 56%
    12:00 +8°C° 0 mm 6 mps 756 mmHg 52%
    13:00 +8°C° 0 mm 5 mps 756 mmHg 53%
    14:00 +8°C° 0 mm 5 mps 756 mmHg 55%
    15:00 +7°C° 0 mm 5 mps 756 mmHg 56%
    16:00 +6°C° 0 mm 5 mps 756 mmHg 57%
    17:00 +5°C° 0 mm 5 mps 756 mmHg 59%
    18:00 +5°C° 0 mm 4 mps 756 mmHg 60%
    19:00 +4°C° 0 mm 4 mps 756 mmHg 58%
    20:00 +4°C° 0 mm 4 mps 757 mmHg 56%
    21:00 +3°C° 0 mm 4 mps 757 mmHg 54%
    22:00 +3°C° 0 mm 4 mps 757 mmHg 54%
    23:00 +1°C° 0 mm 4 mps 756 mmHg 55%

    Day after tomorrow, 18 November, Sunday

    Time Temperature Precipitation Wind Pressure Humidity
    00:00 +1°C° 0 mm 4 mps 756 mmHg 55%
    01:00 0°C° 0 mm 4 mps 756 mmHg 56%
    02:00 0°C° 0 mm 4 mps 756 mmHg 57%
    03:00 0°C° 0 mm 4 mps 756 mmHg 58%
    04:00 0°C° 0 mm 4 mps 756 mmHg 59%
    05:00 0°C° 0 mm 4 mps 756 mmHg 60%
    06:00 0°C° 0 mm 4 mps 756 mmHg 61%
    07:00 0°C° 0 mm 4 mps 756 mmHg 59%
    08:00 +1°C° 0 mm 5 mps 756 mmHg 57%
    09:00 +2°C° 0 mm 5 mps 756 mmHg 56%
    10:00 +3°C° 0 mm 5 mps 756 mmHg 54%
    11:00 +5°C° 0 mm 5 mps 756 mmHg 52%
    12:00 +7°C° 0 mm 5 mps 756 mmHg 50%
    13:00 +6°C° 0 mm 5 mps 755 mmHg 53%
    14:00 +6°C° 0 mm 4 mps 755 mmHg 55%
    15:00 +6°C° 0 mm 4 mps 755 mmHg 58%
    16:00 +5°C° 0 mm 4 mps 755 mmHg 60%
    17:00 +4°C° 0 mm 4 mps 755 mmHg 62%
    18:00 +3°C° 0 mm 4 mps 755 mmHg 64%
    19:00 +1°C° 0 mm 4 mps 755 mmHg 62%
    20:00 +1°C° 0 mm 4 mps 755 mmHg 60%
    21:00 +1°C° 0 mm 4 mps 755 mmHg 58%
    22:00 0°C° 0 mm 4 mps 755 mmHg 60%
    23:00 0°C° 0 mm 4 mps 755 mmHg 62%

    19 November, Monday

    Time Temperature Precipitation Wind Pressure Humidity
    00:00 -1°C° 0 mm 4 mps 754 mmHg 64%
    01:00 -1°C° 0 mm 4 mps 754 mmHg 70%
    02:00 -1°C° 0 mm 4 mps 754 mmHg 77%
    03:00 -1°C° 0 mm 4 mps 754 mmHg 84%
    04:00 -1°C° 0 mm 4 mps 753 mmHg 86%
    05:00 -1°C° 0 mm 4 mps 753 mmHg 89%
    06:00 -1°C° 0 mm 4 mps 753 mmHg 91%
    07:00 0°C° 0 mm 5 mps 753 mmHg 87%
    08:00 +1°C° 0 mm 5 mps 753 mmHg 83%
    09:00 +1°C° 0 mm 5 mps 753 mmHg 79%
    10:00 +2°C° 0 mm 5 mps 753 mmHg 75%
    11:00 +3°C° 0 mm 6 mps 752 mmHg 71%
    12:00 +4°C° 0 mm 6 mps 752 mmHg 67%
    13:00 +3°C° 0 mm 5 mps 752 mmHg 68%
    14:00 +3°C° 0 mm 5 mps 751 mmHg 69%
    15:00 +3°C° 0 mm 5 mps 751 mmHg 71%
    16:00 +3°C° 0 mm 4 mps 751 mmHg 73%
    17:00 +1°C° 0 mm 4 mps 751 mmHg 74%
    18:00 +1°C° 0 mm 4 mps 750 mmHg 76%
    19:00 0°C° 0 mm 4 mps 751 mmHg 78%
    20:00 0°C° 0 mm 4 mps 751 mmHg 79%
    21:00 -1°C° 0 mm 4 mps 751 mmHg 81%
    22:00 -1°C° 0 mm 4 mps 750 mmHg 82%
    23:00 -1°C° 0 mm 3 mps 750 mmHg 84%

    20 November, Tuesday

    Time Temperature Precipitation Wind Pressure Humidity
    00:00 -1°C° 0 mm 3 mps 750 mmHg 86%
    01:00 -1°C° 0 mm 3 mps 750 mmHg 87%
    02:00 -2°C° 0 mm 3 mps 750 mmHg 88%
    03:00 -2°C° 0 mm 3 mps 750 mmHg 90%
    04:00 -2°C° 0 mm 3 mps 749 mmHg 90%
    05:00 -2°C° 0 mm 3 mps 749 mmHg 90%
    06:00 -2°C° 0 mm 3 mps 749 mmHg 90%
    07:00 -1°C° 0 mm 3 mps 749 mmHg 85%
    08:00 -1°C° 0 mm 3 mps 749 mmHg 81%
    09:00 -1°C° 0 mm 4 mps 749 mmHg 77%
    10:00 0°C° 0 mm 4 mps 749 mmHg 73%
    11:00 +1°C° 0 mm 4 mps 748 mmHg 68%
    12:00 +1°C° 0 mm 4 mps 748 mmHg 64%
    13:00 +1°C° 0 mm 4 mps 748 mmHg 68%
    14:00 +1°C° 0 mm 4 mps 747 mmHg 71%
    15:00 +1°C° 0 mm 4 mps 747 mmHg 74%
    16:00 +1°C° 0.1 mm 3 mps 747 mmHg 80%
    17:00 0°C° 0.1 mm 3 mps 747 mmHg 86%
    18:00 +1°C° 0.1 mm 2 mps 747 mmHg 92%
    19:00 -1°C° 0 mm 2 mps 747 mmHg 93%
    20:00 -1°C° 0 mm 2 mps 747 mmHg 94%
    21:00 -2°C° 0 mm 2 mps 747 mmHg 95%
    22:00 -2°C° 0 mm 2 mps 747 mmHg 95%
    23:00 0°C° 0 mm 1 mps 747 mmHg 95%

    21 November, Wednesday

    Time Temperature Precipitation Wind Pressure Humidity
    00:00 -1°C° 0 mm 1 mps 747 mmHg 95%
    01:00 -1°C° 0 mm 1 mps 747 mmHg 95%
    02:00 -1°C° 0 mm 1 mps 747 mmHg 95%
    03:00 -1°C° 0 mm 1 mps 747 mmHg 95%
    04:00 -1°C° 0 mm 1 mps 746 mmHg 95%
    05:00 -1°C° 0 mm 1 mps 746 mmHg 95%
    06:00 -1°C° 0 mm 1 mps 746 mmHg 96%
    07:00 0°C° 0 mm 1 mps 746 mmHg 92%
    08:00 0°C° 0 mm 1 mps 747 mmHg 89%
    09:00 +1°C° 0 mm 1 mps 747 mmHg 86%
    10:00 +2°C° 0.1 mm 1 mps 747 mmHg 83%
    11:00 +2°C° 0.1 mm 1 mps 746 mmHg 80%
    12:00 +3°C° 0.1 mm 1 mps 746 mmHg 77%
    13:00 +3°C° 0.1 mm 1 mps 746 mmHg 78%
    14:00 +3°C° 0.1 mm 1 mps 746 mmHg 80%
    15:00 +3°C° 0.1 mm 1 mps 746 mmHg 81%
    16:00 +2°C° 0 mm 1 mps 746 mmHg 84%
    17:00 +1°C° 0 mm 1 mps 747 mmHg 88%
    18:00 -1°C° 0 mm 0 mps 747 mmHg 92%
    19:00 -1°C° 0 mm 0 mps 747 mmHg 92%
    20:00 -1°C° 0 mm 0 mps 747 mmHg 93%
    21:00 -2°C° 0 mm 0 mps 748 mmHg 93%
    22:00 -1°C° 0 mm 1 mps 748 mmHg 93%
    23:00 -1°C° 0 mm 1 mps 748 mmHg 93%
    Show more